[[{"header":{"parameterUnit":"m.s-1","parameterCategory":2,"la1":30.2991,"la2":30.254,"lo1":-89.0895,"lo2":-89.0444,"dy":0.0017,"dx":0.0017,"nx":28,"ny":28,"refTime":"2023-10-06T03:00:00:Z","depth":"0","parameterNumber":2,"parameterNumberName":"U-component_of_CURRENTS"},"data":[0,0,0,0,0,0,0,0,0,0,0,0,0,0,0,0,0,0,0,0,0,0,0,0,0,0,0,0,0,0,0,0,0,0,0,0,0,0,0,0,0,0,0,0,0,0,0,0,0,0,0,0,0,0,0,0,0,0,-0.278,-0.2781,0,-0.2846,-0.2847,-0.2847,-0.2788,-0.2785,-0.2783,-0.2781,-0.2825,-0.2828,-0.2831,0,0,0,0,0,0,0,0,0,0,0,0,0,-0.2619,-0.2622,-0.278,-0.2781,-0.2782,-0.2846,-0.2847,-0.2847,-0.2788,-0.2785,-0.2782,-0.278,-0.2823,-0.2827,-0.2831,0,0,0,0,0,0,0,0,0,0,0,0,0,-0.2686,-0.2623,-0.278,-0.2761,-0.276,-0.2846,-0.2847,-0.2848,-0.2789,-0.2785,-0.2782,-0.2778,-0.2822,-0.2827,-0.2832,-0.2932,0,0,-0.2847,-0.2849,0,0,0,0,0,0,0,0,-0.2683,-0.2692,-0.2763,-0.2762,-0.2761,-0.2806,-0.2806,-0.2875,-0.2789,-0.2776,-0.2781,-0.2777,-0.282,-0.2825,-0.2843,-0.2934,-0.2936,-0.2848,-0.2851,-0.2853,-0.2854,0,0,0,0,0,0,0,-0.2678,-0.2689,-0.2805,-0.2764,-0.2763,-0.2755,-0.276,-0.2819,-0.2815,-0.2777,-0.2773,-0.2784,-0.2818,-0.2839,-0.2844,-0.2937,-0.2847,-0.2852,-0.2855,-0.2857,-0.3008,-0.3009,0,0,0,0,0,0,-0.2676,-0.2685,-0.2803,-0.2807,-0.2714,-0.276,-0.2766,-0.2794,-0.2815,-0.2815,-0.2787,-0.2781,-0.2832,-0.2838,-0.2845,-0.2859,-0.2853,-0.2857,-0.286,-0.3007,-0.3008,-0.3009,0,0,0,0,0,0,-0.2673,-0.2687,-0.28,-0.2747,-0.276,-0.2767,-0.2799,-0.2797,-0.2798,-0.2823,-0.2821,-0.2786,-0.2829,-0.2838,-0.2889,-0.2863,-0.286,-0.2864,-0.3006,-0.3007,-0.3009,-0.2954,0,0,0,0,0,0,-0.2668,-0.2686,-0.2703,-0.2748,-0.2764,-0.2832,-0.2802,-0.2801,-0.2812,-0.2804,-0.2823,-0.2824,-0.2827,-0.2882,-0.2894,-0.287,-0.2868,-0.3004,-0.3006,-0.3008,-0.2955,-0.2954,-0.2953,0,0,0,0,0,-0.2663,-0.2694,-0.2704,-0.2717,-0.2788,-0.2833,-0.284,-0.2831,-0.2815,-0.2819,-0.2838,-0.2822,-0.29,-0.2888,-0.2902,-0.2879,-0.3003,-0.3006,-0.3008,-0.2955,-0.2954,-0.2953,0,0,0,0,0,0,-0.2627,-0.2693,-0.2703,-0.2752,-0.2783,-0.2822,-0.2829,-0.2837,-0.286,-0.2848,-0.2862,-0.2867,-0.2896,-0.2918,-0.2904,-0.293,-0.294,-0.2946,-0.2895,-0.2894,-0.2893,-0.2847,-0.2872,0,0,0,0,0,-0.2635,-0.2671,-0.2728,-0.2761,-0.2779,-0.2809,-0.2826,-0.2827,-0.2857,-0.2861,-0.2879,-0.29,-0.2926,-0.2932,-0.2968,-0.3006,-0.2986,-0.2995,-0.2994,-0.2992,-0.2967,-0.2928,-0.2919,-0.3017,-0.3017,-0.3017,0,0,-0.2625,-0.2669,-0.2686,-0.2755,-0.2777,-0.2801,-0.2808,-0.2834,-0.2836,-0.287,-0.288,-0.2913,-0.2943,-0.2964,-0.2976,-0.297,-0.296,-0.2995,-0.2993,-0.2968,-0.2929,-0.2919,-0.291,-0.3018,-0.3018,-0.3018,0,0,-0.2621,-0.2669,-0.2693,-0.2724,-0.2768,-0.2792,-0.2799,-0.2844,-0.284,-0.2885,-0.2891,-0.2904,-0.2968,-0.2956,-0.2965,-0.2991,-0.2967,-0.3009,-0.295,-0.2914,-0.2904,-0.2895,-0.2866,-0.2855,-0.2993,-0.2993,-0.2993,0,-0.2598,-0.2646,-0.2702,-0.273,-0.2744,-0.2784,-0.2797,-0.2817,-0.2867,-0.2867,-0.2873,-0.2924,-0.2948,-0.2941,-0.2937,-0.2979,-0.2965,-0.2945,-0.2906,-0.2897,-0.2888,-0.2861,-0.2849,-0.299,-0.2991,-0.2991,-0.2991,0,-0.2615,-0.2642,-0.2655,-0.2701,-0.2732,-0.2747,-0.2789,-0.2806,-0.2818,-0.2832,-0.2842,-0.2877,-0.2891,-0.29,-0.2926,-0.2882,-0.2895,-0.2916,-0.2894,-0.2874,-0.2849,-0.2837,-0.2987,-0.2988,-0.2988,-0.2989,0,0,-0.2567,-0.2647,-0.2646,-0.2655,-0.2712,-0.2736,-0.275,-0.277,-0.2766,-0.279,-0.2776,-0.2799,-0.2808,-0.2819,-0.2843,-0.2802,-0.2738,-0.2826,-0.2826,-0.277,-0.2658,-0.2594,-0.2576,-0.2749,-0.2747,-0.2745,-0.2665,0,-0.2541,-0.2581,-0.2631,-0.2639,-0.2654,-0.2696,-0.2709,-0.2734,-0.2753,-0.2757,-0.2753,-0.2765,-0.278,-0.2788,-0.2746,-0.2763,-0.2704,-0.2757,-0.2709,-0.2707,-0.2629,-0.2559,-0.2456,-0.2369,-0.2654,-0.2652,-0.2651,0,-0.2519,-0.2553,-0.2565,-0.2606,-0.2616,-0.2629,-0.2649,-0.2667,-0.2686,-0.2704,-0.2693,-0.2714,-0.2677,-0.2695,-0.2632,-0.2669,-0.2644,-0.2634,-0.2632,-0.2574,-0.262,-0.2437,-0.2337,-0.233,-0.2633,-0.2634,-0.2636,0,-0.2441,-0.2491,-0.2495,-0.2509,-0.2573,-0.2576,-0.2602,-0.2637,-0.2642,-0.266,-0.2663,-0.2644,-0.2629,-0.2591,-0.2576,-0.2603,-0.2501,-0.2542,-0.2446,-0.2443,-0.2343,-0.2333,-0.2197,-0.2452,-0.2452,-0.2452,-0.2452,0,-0.238,-0.2375,-0.2458,-0.2457,-0.2454,-0.2525,-0.2518,-0.2549,-0.2583,-0.2578,-0.2618,-0.2595,-0.2598,-0.2557,-0.2544,-0.2448,-0.2468,-0.2398,-0.2398,-0.2326,-0.2316,-0.2298,-0.2339,-0.2449,-0.245,-0.245,-0.2451,0,-0.2272,-0.2329,-0.2331,-0.2398,-0.2412,-0.2406,-0.2458,-0.2465,-0.2513,-0.2505,-0.2507,-0.2534,-0.2485,-0.2475,-0.2421,-0.2389,-0.2281,-0.2286,-0.2204,-0.2193,-0.2092,-0.2136,-0.2,-0.1944,-0.2155,-0.2152,-0.215,0,-0.2215,-0.221,-0.2265,-0.2269,-0.229,-0.2307,-0.2325,-0.2402,-0.2418,-0.2454,-0.244,-0.2411,-0.2368,-0.2272,-0.2212,-0.214,-0.2167,-0.201,-0.2023,-0.2025,-0.2075,-0.2118,-0.2085,-0.1883,-0.1879,-0.1876,-0.1873,0,-0.2097,-0.2118,-0.2132,-0.2143,-0.2158,-0.2167,-0.2202,-0.2205,-0.2292,-0.2293,-0.2278,-0.2246,-0.2178,-0.2058,-0.198,-0.1928,-0.1962,-0.1938,-0.1948,-0.183,-0.1858,-0.1825,-0.2025,-0.1844,-0.1847,-0.1849,-0.185,-0.1852,-0.1993,-0.1977,-0.2,-0.199,-0.201,-0.1995,-0.1956,-0.2018,-0.2002,-0.1984,-0.2062,-0.199,-0.1961,-0.1823,-0.1773,-0.1656,-0.1727,-0.1615,-0.1664,-0.1705,-0.1642,-0.1773,-0.1594,-0.1595,-0.1596,-0.1597,-0.1598,0,-0.1854,-0.1854,-0.185,-0.1832,-0.1788,-0.1844,-0.1845,-0.1791,-0.173,-0.1778,-0.1746,-0.1709,-0.16,-0.1592,-0.1495,-0.142,-0.1399,-0.1394,-0.1432,-0.1407,-0.1507,-0.1486,-0.1264,-0.1264,-0.1264,-0.1264,-0.1264,-0.1264,-0.1784,-0.1729,-0.1727,-0.16,-0.1588,-0.1478,-0.1441,-0.1395,-0.1395,-0.133,-0.1335,-0.1366,-0.1398,-0.1511,-0.1414,-0.1339,-0.1329,-0.127,-0.1319,-0.1414,-0.144,-0.1464,-0.1451,-0.1225,-0.1225,-0.1151,-0.1151,-0.115]},{"header":{"parameterUnit":"m.s-1","parameterCategory":2,"la1":30.2991,"la2":30.254,"lo1":-89.0895,"lo2":-89.0444,"dy":0.0017,"dx":0.0017,"nx":28,"ny":28,"refTime":"2023-10-06T03:00:00:Z","depth":"0","parameterNumber":3,"parameterNumberName":"V-component_of_CURRENTS"},"data":[0,0,0,0,0,0,0,0,0,0,0,0,0,0,0,0,0,0,0,0,0,0,0,0,0,0,0,0,0,0,0,0,0,0,0,0,0,0,0,0,0,0,0,0,0,0,0,0,0,0,0,0,0,0,0,0,0,0,-0.0172,-0.0171,0,-0.0044,-0.0043,-0.0041,0.0042,0.0043,0.0043,0.0043,0.0276,0.0282,0.0288,0,0,0,0,0,0,0,0,0,0,0,0,0,-0.0251,-0.025,-0.0172,-0.0171,-0.017,-0.0045,-0.0043,-0.0041,0.0042,0.0043,0.0043,0.0043,0.0274,0.0281,0.0289,0,0,0,0,0,0,0,0,0,0,0,0,0,-0.0177,-0.025,-0.0173,-0.0115,-0.0109,-0.0045,-0.0042,-0.004,0.0042,0.0043,0.0043,0.0044,0.0272,0.0281,0.029,0.0335,0,0,0.0317,0.0321,0,0,0,0,0,0,0,0,-0.0182,-0.0174,-0.0125,-0.0119,-0.0112,-0.0018,0.0015,0.009,0.0042,-0.0013,0.0043,0.0044,0.0186,0.0202,0.0227,0.0346,0.0356,0.0317,0.0323,0.0327,0.0329,0,0,0,0,0,0,0,-0.0187,-0.0179,-0.0119,-0.0123,-0.0115,-0.0063,-0.0053,0.003,0.0086,-0.0008,-0.0002,0.0008,0.019,0.0218,0.0233,0.0359,0.0317,0.0325,0.0331,0.0334,0.054,0.0541,0,0,0,0,0,0,-0.0213,-0.0184,-0.0123,-0.0116,-0.0149,-0.0063,-0.0051,-0.0047,0.0083,0.0102,0.0008,0.0012,0.0202,0.0222,0.0242,0.0291,0.0327,0.0335,0.034,0.054,0.054,0.0541,0,0,0,0,0,0,-0.0215,-0.0209,-0.0128,-0.0148,-0.0135,-0.0063,-0.0058,-0.0045,-0.002,0.0093,0.0115,0.0017,0.0203,0.0229,0.0311,0.0301,0.0339,0.0347,0.054,0.054,0.0541,0.0397,0,0,0,0,0,0,-0.0218,-0.0211,-0.0218,-0.0151,-0.0135,-0.0104,-0.0058,-0.0043,-0.0015,-0.0009,0.0109,0.0131,0.0206,0.0297,0.032,0.0314,0.0354,0.054,0.054,0.054,0.0402,0.0393,0.0385,0,0,0,0,0,-0.0222,-0.0238,-0.022,-0.0212,-0.0147,-0.0105,-0.0092,-0.0037,-0.0016,-0.0012,0.0071,0.0127,0.0315,0.0305,0.0331,0.0327,0.054,0.054,0.054,0.0406,0.0394,0.0385,0,0,0,0,0,0,-0.0277,-0.0229,-0.0208,-0.0209,-0.0167,-0.0092,-0.0086,-0.0047,0.002,0.0028,0.0135,0.0163,0.023,0.0303,0.0288,0.0389,0.0435,0.0441,0.0324,0.0314,0.0306,0.0289,0.0361,0,0,0,0,0,-0.0295,-0.0295,-0.0237,-0.024,-0.0224,-0.0157,-0.0134,-0.0098,-0.003,-0.0001,0.0081,0.0173,0.0253,0.03,0.0383,0.0441,0.0497,0.0456,0.0447,0.0439,0.0446,0.0504,0.05,0.0542,0.0542,0.0542,0,0,-0.0316,-0.0292,-0.029,-0.0252,-0.0215,-0.0198,-0.0142,-0.0118,-0.0098,0.0016,0.0068,0.0148,0.0263,0.0324,0.0361,0.0382,0.0456,0.044,0.0432,0.0443,0.0504,0.0499,0.0496,0.0542,0.0542,0.0542,0,0,-0.0363,-0.034,-0.0355,-0.0327,-0.0285,-0.0238,-0.0238,-0.017,-0.0134,-0.0076,0.0009,0.0079,0.0203,0.0277,0.0333,0.0331,0.0407,0.0356,0.0301,0.0356,0.0353,0.035,0.0397,0.04,0.0351,0.0351,0.0351,0,-0.0391,-0.0398,-0.0352,-0.0358,-0.0337,-0.0264,-0.0266,-0.0221,-0.0134,-0.01,-0.0077,0.0095,0.018,0.0266,0.0262,0.031,0.0352,0.0322,0.0341,0.034,0.0341,0.039,0.0395,0.0344,0.0345,0.0345,0.0346,0,-0.0444,-0.0446,-0.0454,-0.0432,-0.0404,-0.0397,-0.0329,-0.0298,-0.0247,-0.0189,-0.0105,0.0004,0.0109,0.0137,0.0203,0.0249,0.0281,0.0317,0.0355,0.0327,0.0382,0.0389,0.0334,0.0337,0.0339,0.034,0,0,-0.0505,-0.0494,-0.0494,-0.0496,-0.0442,-0.0425,-0.0394,-0.0334,-0.0308,-0.0231,-0.0185,-0.0067,-0.0008,0.006,0.0142,0.0187,0.0211,0.0241,0.0247,0.0266,0.0325,0.0383,0.0398,0.0242,0.0243,0.0243,0.0355,0,-0.0555,-0.0589,-0.0558,-0.057,-0.0573,-0.0502,-0.0474,-0.0411,-0.0343,-0.0281,-0.0176,-0.0097,-0.0037,0.0008,0.006,0.0192,0.023,0.0178,0.0371,0.0377,0.0414,0.0408,0.0452,0.0559,0.0363,0.0365,0.0366,0,-0.0608,-0.0621,-0.0651,-0.063,-0.0624,-0.0615,-0.0551,-0.0517,-0.0412,-0.036,-0.0274,-0.0179,-0.0076,-0.0036,0.0141,0.0104,0.0199,0.0282,0.0289,0.0404,0.045,0.0564,0.0582,0.0724,0.0379,0.0378,0.0377,0,-0.0667,-0.0678,-0.0705,-0.0701,-0.0668,-0.0661,-0.063,-0.0541,-0.0505,-0.0406,-0.0365,-0.0232,-0.0151,-0.0025,0.0157,0.0148,0.0344,0.0359,0.0494,0.0499,0.061,0.0623,0.0776,0.046,0.046,0.046,0.0459,0,-0.0724,-0.0743,-0.074,-0.0757,-0.0774,-0.0722,-0.0712,-0.0662,-0.058,-0.053,-0.0412,-0.0336,-0.0146,-0.0,0.0141,0.0354,0.0336,0.0492,0.0537,0.0561,0.0568,0.0759,0.0808,0.0464,0.0463,0.0462,0.0461,0,-0.0781,-0.0781,-0.0815,-0.0808,-0.0807,-0.0817,-0.0779,-0.0763,-0.068,-0.0612,-0.0582,-0.0402,-0.0202,-0.0009,0.0223,0.0348,0.0635,0.0605,0.0619,0.0663,0.0913,0.0952,0.1156,0.1254,0.077,0.0772,0.0774,0,-0.0814,-0.084,-0.0866,-0.089,-0.0892,-0.0897,-0.0893,-0.0823,-0.0792,-0.0638,-0.0604,-0.0401,-0.0222,0.0135,0.0391,0.0652,0.0743,0.0822,0.0816,0.0944,0.102,0.1035,0.1102,0.0901,0.0904,0.0906,0.0908,0,-0.087,-0.0881,-0.0911,-0.0964,-0.0983,-0.0997,-0.098,-0.0968,-0.086,-0.077,-0.0598,-0.044,-0.0074,0.0276,0.0605,0.075,0.0938,0.0876,0.1016,0.1146,0.1167,0.1276,0.0799,0.0927,0.0925,0.0924,0.0923,0.0922,-0.0902,-0.0944,-0.0985,-0.1029,-0.1056,-0.107,-0.1061,-0.1009,-0.093,-0.0749,-0.0595,-0.0295,0.0175,0.0672,0.0845,0.1194,0.1133,0.1281,0.1319,0.1323,0.1418,0.0979,0.115,0.115,0.1149,0.1149,0.1148,0,-0.0938,-0.0985,-0.1042,-0.1089,-0.1119,-0.1117,-0.1092,-0.1035,-0.0918,-0.0711,-0.0493,0.0089,0.0554,0.096,0.145,0.1629,0.1663,0.1694,0.1729,0.178,0.1412,0.142,0.1648,0.1648,0.1648,0.1648,0.1647,0.1647,-0.0958,-0.1025,-0.1059,-0.1118,-0.1146,-0.1143,-0.1116,-0.0999,-0.083,-0.0456,-0.0101,0.0194,0.077,0.153,0.1974,0.2006,0.2161,0.2126,0.2214,0.1958,0.1922,0.1887,0.1908,0.2235,0.2235,0.2578,0.2581,0.2583]}],[{"header":{"parameterUnit":"m.s-1","parameterCategory":2,"la1":30.2991,"la2":30.254,"lo1":-89.0895,"lo2":-89.0444,"dy":0.0017,"dx":0.0017,"nx":28,"ny":28,"refTime":"2023-10-06T03:00:00:Z","depth":"2","parameterNumber":2,"parameterNumberName":"U-component_of_CURRENTS"},"data":[0,0,0,0,0,0,0,0,0,0,0,0,0,0,0,0,0,0,0,0,0,0,0,0,0,0,0,0,0,0,0,0,0,0,0,0,0,0,0,0,0,0,0,0,0,0,0,0,0,0,0,0,0,0,0,0,0,0,-0.2397,-0.2398,0,-0.2444,-0.2444,-0.2444,-0.2407,-0.2405,-0.2404,-0.2403,-0.2411,-0.2412,-0.2414,0,0,0,0,0,0,0,0,0,0,0,0,0,-0.2271,-0.2273,-0.2397,-0.2398,-0.2399,-0.2444,-0.2444,-0.2444,-0.2407,-0.2405,-0.2404,-0.2402,-0.2411,-0.2412,-0.2414,0,0,0,0,0,0,0,0,0,0,0,0,0,-0.2319,-0.2274,-0.2397,-0.2388,-0.2388,-0.2443,-0.2444,-0.2444,-0.2407,-0.2405,-0.2403,-0.2401,-0.241,-0.2412,-0.2414,-0.2466,0,0,-0.2421,-0.2422,0,0,0,0,0,0,0,0,-0.2316,-0.2323,-0.2388,-0.2388,-0.2388,-0.242,-0.2403,-0.2451,-0.2408,-0.2396,-0.2403,-0.24,-0.2414,-0.2416,-0.2425,-0.2467,-0.2467,-0.2421,-0.2422,-0.2423,-0.2424,0,0,0,0,0,0,0,-0.2313,-0.2321,-0.2412,-0.2389,-0.239,-0.238,-0.2384,-0.2411,-0.2412,-0.2397,-0.2395,-0.2406,-0.2413,-0.2423,-0.2425,-0.2467,-0.2421,-0.2423,-0.2424,-0.2425,-0.2517,-0.2518,0,0,0,0,0,0,-0.2317,-0.2319,-0.2411,-0.2414,-0.2351,-0.2384,-0.2389,-0.2409,-0.2413,-0.2413,-0.2408,-0.2404,-0.242,-0.2422,-0.2425,-0.2443,-0.2423,-0.2425,-0.2426,-0.2516,-0.2517,-0.2519,0,0,0,0,0,0,-0.2314,-0.2325,-0.2409,-0.2369,-0.2379,-0.2389,-0.2412,-0.2411,-0.2416,-0.2422,-0.242,-0.2412,-0.2419,-0.2422,-0.2441,-0.2444,-0.2426,-0.2428,-0.2515,-0.2516,-0.2518,-0.2508,0,0,0,0,0,0,-0.231,-0.2324,-0.2335,-0.237,-0.2382,-0.2437,-0.2414,-0.2414,-0.2427,-0.2423,-0.2426,-0.2424,-0.2417,-0.2438,-0.2443,-0.2447,-0.243,-0.2513,-0.2515,-0.2517,-0.2507,-0.2509,-0.2511,0,0,0,0,0,-0.2306,-0.2327,-0.2336,-0.2346,-0.2399,-0.2438,-0.2443,-0.2441,-0.243,-0.2436,-0.2434,-0.2424,-0.2455,-0.2441,-0.2447,-0.2451,-0.2512,-0.2515,-0.2517,-0.2506,-0.2508,-0.2511,0,0,0,0,0,0,-0.2273,-0.2327,-0.2336,-0.2371,-0.2402,-0.2433,-0.2439,-0.2448,-0.2455,-0.2446,-0.2443,-0.2443,-0.246,-0.2469,-0.2453,-0.2487,-0.2481,-0.2485,-0.2471,-0.2473,-0.2475,-0.2447,-0.2432,0,0,0,0,0,-0.2277,-0.2302,-0.2353,-0.2376,-0.2395,-0.2421,-0.2435,-0.2442,-0.2458,-0.2458,-0.2465,-0.2472,-0.2481,-0.2485,-0.2499,-0.2526,-0.2504,-0.2534,-0.2536,-0.2537,-0.2521,-0.2492,-0.2488,-0.2527,-0.2527,-0.2527,0,0,-0.2268,-0.2301,-0.2313,-0.237,-0.239,-0.2418,-0.2423,-0.245,-0.2461,-0.2462,-0.2473,-0.2484,-0.2492,-0.2508,-0.2517,-0.2511,-0.2519,-0.254,-0.2541,-0.2523,-0.2494,-0.249,-0.2486,-0.2529,-0.2529,-0.2528,0,0,-0.2261,-0.2296,-0.2314,-0.2347,-0.2391,-0.2413,-0.2424,-0.2467,-0.2469,-0.25,-0.2492,-0.2498,-0.2535,-0.2523,-0.2524,-0.2554,-0.2533,-0.2574,-0.2557,-0.253,-0.2525,-0.2521,-0.2496,-0.2489,-0.2572,-0.2572,-0.2572,0,-0.2242,-0.2278,-0.2323,-0.2352,-0.237,-0.2411,-0.2431,-0.2454,-0.2492,-0.2494,-0.25,-0.2524,-0.2532,-0.2526,-0.2532,-0.2553,-0.2539,-0.2541,-0.2528,-0.2523,-0.2519,-0.2495,-0.2487,-0.2571,-0.2571,-0.2571,-0.2571,0,-0.2253,-0.228,-0.2293,-0.234,-0.2371,-0.2393,-0.2441,-0.2464,-0.2481,-0.2497,-0.2508,-0.2519,-0.2524,-0.2538,-0.2542,-0.2524,-0.2526,-0.2532,-0.2511,-0.2513,-0.2489,-0.2482,-0.2571,-0.2571,-0.2571,-0.2571,0,0,-0.2204,-0.2283,-0.2284,-0.2301,-0.2364,-0.2389,-0.2418,-0.2449,-0.2457,-0.2488,-0.2486,-0.25,-0.2504,-0.2506,-0.2515,-0.2493,-0.2457,-0.2501,-0.25,-0.2457,-0.2398,-0.2327,-0.2312,-0.2461,-0.246,-0.2459,-0.2395,0,-0.2187,-0.2229,-0.2276,-0.2301,-0.2324,-0.2374,-0.2398,-0.2433,-0.2459,-0.2475,-0.2476,-0.2486,-0.2494,-0.2498,-0.2476,-0.2471,-0.2437,-0.2473,-0.2418,-0.2416,-0.2336,-0.23,-0.2144,-0.2067,-0.2388,-0.2386,-0.2385,0,-0.2168,-0.2203,-0.2228,-0.2282,-0.2297,-0.232,-0.2358,-0.2387,-0.2422,-0.2444,-0.2447,-0.2462,-0.2444,-0.2453,-0.2404,-0.2431,-0.2405,-0.2392,-0.2389,-0.2314,-0.2329,-0.2117,-0.2041,-0.2373,-0.2374,-0.2375,-0.2376,0,-0.2095,-0.2158,-0.2171,-0.2191,-0.2269,-0.2281,-0.2316,-0.2364,-0.2381,-0.2416,-0.2426,-0.2422,-0.2413,-0.2385,-0.2365,-0.2385,-0.2306,-0.2331,-0.2233,-0.2229,-0.2076,-0.206,-0.2267,-0.2267,-0.2267,-0.2267,-0.2267,0,-0.2045,-0.2054,-0.2139,-0.2147,-0.2161,-0.2235,-0.2247,-0.2289,-0.2336,-0.2344,-0.2393,-0.2385,-0.2393,-0.2362,-0.2347,-0.2256,-0.2284,-0.2203,-0.2194,-0.2072,-0.2057,-0.2312,-0.2318,-0.2265,-0.2265,-0.2266,-0.2266,0,-0.195,-0.2007,-0.2026,-0.2106,-0.2123,-0.2132,-0.2199,-0.2218,-0.2275,-0.2285,-0.2294,-0.2337,-0.2298,-0.2291,-0.2245,-0.221,-0.2154,-0.2113,-0.1972,-0.1945,-0.2103,-0.211,-0.1992,-0.1989,-0.1986,-0.1984,-0.1982,0,-0.1902,-0.1903,-0.1973,-0.1986,-0.2016,-0.205,-0.2078,-0.2163,-0.2188,-0.2243,-0.2238,-0.2225,-0.2188,-0.2102,-0.2039,-0.1966,-0.2053,-0.1791,-0.1788,-0.2065,-0.2068,-0.208,-0.209,-0.1592,-0.1587,-0.1583,-0.158,0,-0.1803,-0.1828,-0.1851,-0.1879,-0.1908,-0.1931,-0.1979,-0.1989,-0.2084,-0.2093,-0.2088,-0.2062,-0.1998,-0.1848,-0.1769,-0.1716,-0.1796,-0.1704,-0.2,-0.1693,-0.1684,-0.169,-0.1713,-0.1543,-0.1547,-0.155,-0.1552,-0.1553,-0.1717,-0.171,-0.1742,-0.1751,-0.1785,-0.1783,-0.1755,-0.1819,-0.1812,-0.1798,-0.1874,-0.1782,-0.178,-0.1557,-0.1477,-0.1414,-0.154,-0.1484,-0.1498,-0.1516,-0.1488,-0.1475,-0.129,-0.1292,-0.1294,-0.1295,-0.1297,0,-0.1602,-0.1607,-0.1615,-0.1618,-0.1594,-0.1652,-0.1664,-0.1614,-0.1558,-0.1585,-0.1549,-0.1375,-0.127,-0.1273,-0.1113,-0.109,-0.1093,-0.1052,-0.1062,-0.1098,-0.113,-0.1085,-0.0778,-0.0777,-0.0775,-0.0774,0,0,-0.1544,-0.1503,-0.1505,-0.1412,-0.1414,-0.1329,-0.1299,-0.1249,-0.1233,-0.1143,-0.11,-0.1181,-0.1223,-0.1,-0.0953,-0.0839,-0.096,-0.0793,-0.1206,-0.1252,-0.1283,-0.1371,-0.134,0,0,0,0,0]},{"header":{"parameterUnit":"m.s-1","parameterCategory":2,"la1":30.2991,"la2":30.254,"lo1":-89.0895,"lo2":-89.0444,"dy":0.0017,"dx":0.0017,"nx":28,"ny":28,"refTime":"2023-10-06T03:00:00:Z","depth":"2","parameterNumber":3,"parameterNumberName":"V-component_of_CURRENTS"},"data":[0,0,0,0,0,0,0,0,0,0,0,0,0,0,0,0,0,0,0,0,0,0,0,0,0,0,0,0,0,0,0,0,0,0,0,0,0,0,0,0,0,0,0,0,0,0,0,0,0,0,0,0,0,0,0,0,0,0,-0.0238,-0.0238,0,-0.0144,-0.0143,-0.0142,-0.0071,-0.007,-0.007,-0.0069,0.0079,0.0082,0.0085,0,0,0,0,0,0,0,0,0,0,0,0,0,-0.0289,-0.0289,-0.0239,-0.0238,-0.0236,-0.0144,-0.0143,-0.0142,-0.0071,-0.007,-0.007,-0.0069,0.0077,0.0081,0.0086,0,0,0,0,0,0,0,0,0,0,0,0,0,-0.0237,-0.0289,-0.0239,-0.0191,-0.0186,-0.0145,-0.0143,-0.0141,-0.0071,-0.007,-0.007,-0.0069,0.0076,0.0081,0.0086,0.0102,0,0,0.0102,0.0104,0,0,0,0,0,0,0,0,-0.024,-0.0235,-0.0199,-0.0194,-0.0188,-0.0119,-0.0106,-0.0058,-0.0071,-0.0113,-0.0069,-0.0068,0.0016,0.0026,0.0043,0.0109,0.0115,0.0102,0.0106,0.0108,0.0109,0,0,0,0,0,0,0,-0.0244,-0.0239,-0.02,-0.0198,-0.0192,-0.0151,-0.0143,-0.0097,-0.0053,-0.011,-0.0105,-0.0096,0.002,0.0038,0.0047,0.0117,0.0102,0.0107,0.011,0.0112,0.0231,0.0231,0,0,0,0,0,0,-0.0263,-0.0242,-0.0203,-0.0197,-0.0214,-0.0151,-0.0142,-0.0141,-0.0054,-0.0041,-0.0097,-0.0093,0.0029,0.0041,0.0053,0.009,0.0108,0.0113,0.0116,0.0231,0.0231,0.0231,0,0,0,0,0,0,-0.0264,-0.026,-0.0207,-0.0218,-0.0208,-0.0152,-0.0151,-0.014,-0.0121,-0.0045,-0.003,-0.009,0.003,0.0045,0.0091,0.0096,0.0115,0.012,0.0231,0.0231,0.0231,0.0156,0,0,0,0,0,0,-0.0266,-0.0262,-0.027,-0.022,-0.0209,-0.019,-0.0151,-0.0139,-0.0118,-0.0112,-0.0034,-0.0019,0.0031,0.0083,0.0096,0.0103,0.0124,0.0231,0.0231,0.0231,0.0159,0.0154,0.015,0,0,0,0,0,-0.0268,-0.0286,-0.0271,-0.0266,-0.0222,-0.0191,-0.0182,-0.0137,-0.0119,-0.0116,-0.0062,-0.0022,0.0094,0.0087,0.0103,0.0111,0.0231,0.0231,0.0231,0.0161,0.0155,0.015,0,0,0,0,0,0,-0.0313,-0.0279,-0.0262,-0.0269,-0.0236,-0.018,-0.0176,-0.0145,-0.0102,-0.0097,-0.0024,-0.0006,0.0036,0.0082,0.0072,0.0146,0.017,0.0174,0.0111,0.0106,0.0102,0.0091,0.0128,0,0,0,0,0,-0.0329,-0.0334,-0.0289,-0.0296,-0.0284,-0.0232,-0.0215,-0.0186,-0.014,-0.012,-0.0064,-0.0004,0.0048,0.0082,0.013,0.017,0.0212,0.0187,0.0182,0.0178,0.0181,0.0242,0.0243,0.0232,0.0232,0.0232,0,0,-0.0347,-0.0331,-0.0332,-0.0306,-0.0277,-0.0265,-0.022,-0.0203,-0.0185,-0.0111,-0.0074,-0.0023,0.0053,0.0096,0.012,0.0137,0.0202,0.0178,0.0174,0.0179,0.0242,0.0243,0.0244,0.0232,0.0232,0.0232,0,0,-0.0389,-0.0374,-0.039,-0.0368,-0.0335,-0.0298,-0.0298,-0.0245,-0.0215,-0.0178,-0.0118,-0.0065,0.001,0.0071,0.0111,0.0112,0.0169,0.0126,0.0105,0.0163,0.0164,0.0166,0.0208,0.0214,0.0131,0.0131,0.0131,0,-0.0413,-0.0424,-0.0389,-0.0395,-0.0378,-0.0319,-0.0321,-0.0284,-0.0221,-0.0193,-0.0178,-0.0057,0.0002,0.0073,0.0075,0.0103,0.0137,0.0116,0.0156,0.0159,0.0162,0.0205,0.0213,0.0128,0.0128,0.0128,0.0129,0,-0.0461,-0.0465,-0.0473,-0.0457,-0.0434,-0.0429,-0.0372,-0.0346,-0.0303,-0.0254,-0.0187,-0.0108,-0.003,-0.0004,0.0038,0.0094,0.011,0.0134,0.0165,0.0158,0.0204,0.0214,0.0122,0.0124,0.0125,0.0126,0,0,-0.0517,-0.051,-0.051,-0.0511,-0.0465,-0.0453,-0.0423,-0.037,-0.0346,-0.0279,-0.0235,-0.0143,-0.0094,-0.0046,0.0018,0.0073,0.012,0.0107,0.0112,0.014,0.0237,0.0264,0.0278,0.0148,0.015,0.0151,0.0254,0,-0.056,-0.0591,-0.0564,-0.0574,-0.0577,-0.0515,-0.0488,-0.0432,-0.0373,-0.0317,-0.0221,-0.016,-0.011,-0.0074,-0.0011,0.0093,0.0144,0.0089,0.0248,0.0252,0.0271,0.0289,0.0251,0.0342,0.0264,0.0266,0.0267,0,-0.0608,-0.0619,-0.0645,-0.0625,-0.062,-0.0612,-0.0554,-0.0523,-0.0426,-0.038,-0.0297,-0.022,-0.0116,-0.0085,0.0085,0.0045,0.0131,0.0205,0.0211,0.0272,0.0298,0.0342,0.0363,0.0283,0.0282,0.0281,0.028,0,-0.0659,-0.0669,-0.0692,-0.0688,-0.0658,-0.0652,-0.0625,-0.0542,-0.051,-0.0417,-0.0379,-0.0251,-0.0181,-0.0056,0.0102,0.0094,0.028,0.0292,0.0396,0.0398,0.0417,0.0419,0.04,0.04,0.04,0.04,0.0399,0,-0.071,-0.0726,-0.0724,-0.0739,-0.0755,-0.0707,-0.0698,-0.0652,-0.0575,-0.0529,-0.0417,-0.0348,-0.0171,-0.0038,0.0093,0.0279,0.0278,0.0399,0.0434,0.0389,0.0387,0.0379,0.0375,0.0403,0.0403,0.0402,0.0401,0,-0.0761,-0.0761,-0.0791,-0.0784,-0.0784,-0.0794,-0.076,-0.0745,-0.0667,-0.0605,-0.0576,-0.0412,-0.0233,-0.0056,0.016,0.0271,0.0441,0.05,0.0427,0.0452,0.0517,0.0508,0.0628,0.063,0.0632,0.0633,0.0635,0,-0.079,-0.0813,-0.0838,-0.0861,-0.0865,-0.087,-0.0867,-0.0802,-0.0772,-0.0631,-0.0599,-0.0421,-0.0268,0.0051,0.0269,0.0502,0.0494,0.0587,0.0573,0.0522,0.0544,0.0532,0.0521,0.0563,0.0563,0.0564,0.0564,0,-0.0841,-0.0851,-0.0878,-0.093,-0.095,-0.0963,-0.0948,-0.0937,-0.0838,-0.0757,-0.0607,-0.0472,-0.0164,0.0101,0.0383,0.0507,0.0548,0.0604,0.0591,0.0508,0.0469,0.0487,0.0477,0.0568,0.0568,0.0567,0.0567,0.0567,-0.0872,-0.0909,-0.0948,-0.0991,-0.1019,-0.1034,-0.1026,-0.098,-0.0912,-0.0755,-0.0622,-0.038,-0.0145,0.0281,0.0466,0.0626,0.063,0.0663,0.0659,0.0654,0.0625,0.0591,0.0707,0.0707,0.0708,0.0708,0.0708,0,-0.0906,-0.0949,-0.1002,-0.1049,-0.1079,-0.1079,-0.1058,-0.1008,-0.0908,-0.0743,-0.0561,-0.0258,0.0036,0.0271,0.0543,0.0704,0.0672,0.0706,0.0636,0.0631,0.0628,0.0594,0.067,0.067,0.067,0.0671,0,0,-0.0926,-0.0988,-0.1017,-0.1077,-0.1107,-0.111,-0.1088,-0.0988,-0.0851,-0.0663,-0.0471,-0.0227,0.0069,0.0255,0.0437,0.0567,0.0551,0.0564,0.0577,0.0467,0.0461,0.0585,0.0527,0,0,0,0,0]}],[{"header":{"parameterUnit":"m.s-1","parameterCategory":2,"la1":30.2991,"la2":30.254,"lo1":-89.0895,"lo2":-89.0444,"dy":0.0017,"dx":0.0017,"nx":28,"ny":28,"refTime":"2023-10-06T03:00:00:Z","depth":"4","parameterNumber":2,"parameterNumberName":"U-component_of_CURRENTS"},"data":[0,0,0,0,0,0,0,0,0,0,0,0,0,0,0,0,0,0,0,0,0,0,0,0,0,0,0,0,0,0,0,0,0,0,0,0,0,0,0,0,0,0,0,0,0,0,0,0,0,0,0,0,0,0,0,0,0,0,-0.164,-0.1641,0,-0.172,-0.1721,-0.1721,-0.1758,-0.1758,-0.1758,-0.1758,-0.1769,-0.1769,-0.1769,0,0,0,0,0,0,0,0,0,0,0,0,0,-0.1519,-0.1521,-0.164,-0.1641,-0.1642,-0.172,-0.1721,-0.1721,-0.1757,-0.1758,-0.1758,-0.1758,-0.1769,-0.1769,-0.1769,0,0,0,0,0,0,0,0,0,0,0,0,0,-0.1579,-0.1521,-0.164,-0.1672,-0.1676,-0.172,-0.1721,-0.1722,-0.1757,-0.1758,-0.1758,-0.1758,-0.1769,-0.1769,-0.1769,-0.1764,0,0,-0.177,-0.177,0,0,0,0,0,0,0,0,-0.1576,-0.1583,-0.1666,-0.167,-0.1674,-0.1732,-0.1682,-0.1733,-0.1757,-0.1723,-0.1758,-0.1758,-0.1752,-0.1753,-0.1764,-0.1765,-0.1765,-0.177,-0.177,-0.177,-0.177,0,0,0,0,0,0,0,-0.1572,-0.158,-0.1668,-0.1667,-0.1673,-0.1683,-0.1691,-0.1692,-0.1731,-0.1726,-0.173,-0.1743,-0.1753,-0.1764,-0.1765,-0.1765,-0.177,-0.177,-0.177,-0.177,-0.1827,-0.1828,0,0,0,0,0,0,-0.1568,-0.1576,-0.1666,-0.1671,-0.1628,-0.1685,-0.1694,-0.171,-0.1733,-0.1738,-0.1743,-0.1745,-0.1764,-0.1765,-0.1765,-0.182,-0.177,-0.177,-0.177,-0.1825,-0.1827,-0.1828,0,0,0,0,0,0,-0.1565,-0.1575,-0.1663,-0.1628,-0.164,-0.1687,-0.1705,-0.1712,-0.1751,-0.1747,-0.175,-0.1778,-0.1764,-0.1765,-0.1792,-0.1818,-0.177,-0.177,-0.1824,-0.1826,-0.1828,-0.1891,0,0,0,0,0,0,-0.1561,-0.1574,-0.1593,-0.1628,-0.1642,-0.1705,-0.1705,-0.1713,-0.1759,-0.1762,-0.1777,-0.1777,-0.1764,-0.1792,-0.1792,-0.1818,-0.177,-0.1822,-0.1825,-0.1827,-0.1887,-0.1895,-0.1902,0,0,0,0,0,-0.1557,-0.1576,-0.1594,-0.1605,-0.1664,-0.1707,-0.1716,-0.1747,-0.176,-0.1782,-0.1796,-0.1778,-0.1809,-0.1794,-0.1793,-0.1819,-0.1821,-0.1824,-0.1827,-0.1884,-0.1894,-0.1902,0,0,0,0,0,0,-0.1535,-0.1583,-0.1603,-0.1638,-0.168,-0.1715,-0.174,-0.1765,-0.1795,-0.1802,-0.1796,-0.1797,-0.1829,-0.1818,-0.1802,-0.1844,-0.1812,-0.1815,-0.1855,-0.1864,-0.1872,-0.185,-0.177,0,0,0,0,0,-0.154,-0.1565,-0.1616,-0.1644,-0.1668,-0.1711,-0.1737,-0.1763,-0.1791,-0.1807,-0.1823,-0.1833,-0.1838,-0.1848,-0.1851,-0.1876,-0.1845,-0.1893,-0.19,-0.1907,-0.189,-0.1875,-0.1879,-0.1839,-0.1839,-0.1839,0,0,-0.1539,-0.1569,-0.1585,-0.1642,-0.1675,-0.1712,-0.1727,-0.1776,-0.1808,-0.18,-0.1851,-0.186,-0.185,-0.1878,-0.1892,-0.1876,-0.1906,-0.1911,-0.1916,-0.1895,-0.1879,-0.1882,-0.1886,-0.1841,-0.1841,-0.184,0,0,-0.1539,-0.158,-0.1601,-0.1641,-0.1701,-0.1729,-0.1751,-0.181,-0.1839,-0.1889,-0.1887,-0.1911,-0.1937,-0.1932,-0.1929,-0.1978,-0.1944,-0.1992,-0.2014,-0.2001,-0.2004,-0.2005,-0.1985,-0.1984,-0.1998,-0.1998,-0.1999,0,-0.1538,-0.1572,-0.1615,-0.1649,-0.1681,-0.1739,-0.1773,-0.1812,-0.1875,-0.1893,-0.1913,-0.1951,-0.1954,-0.1963,-0.1987,-0.1992,-0.1978,-0.1982,-0.2009,-0.201,-0.2011,-0.1989,-0.1987,-0.2002,-0.2002,-0.2001,-0.2001,0,-0.155,-0.159,-0.1608,-0.1666,-0.1708,-0.1748,-0.1809,-0.1858,-0.1906,-0.1937,-0.1981,-0.1996,-0.201,-0.203,-0.2025,-0.2038,-0.2025,-0.2018,-0.1983,-0.2018,-0.1993,-0.199,-0.2007,-0.2006,-0.2005,-0.2004,0,0,-0.1509,-0.1597,-0.1607,-0.1639,-0.1722,-0.1756,-0.1815,-0.1872,-0.1906,-0.1972,-0.2002,-0.2035,-0.205,-0.2047,-0.2055,-0.2055,-0.2063,-0.2048,-0.2046,-0.202,-0.2033,-0.1905,-0.1889,-0.2067,-0.2067,-0.2067,-0.2018,0,-0.1505,-0.1561,-0.1609,-0.1669,-0.1704,-0.1775,-0.1822,-0.1883,-0.1937,-0.1985,-0.201,-0.2042,-0.2054,-0.2073,-0.2076,-0.2066,-0.2057,-0.2076,-0.2008,-0.2005,-0.188,-0.1881,-0.2066,-0.2016,-0.2015,-0.2015,-0.2014,0,-0.149,-0.1535,-0.1588,-0.1671,-0.1694,-0.1741,-0.1821,-0.1872,-0.1941,-0.1983,-0.202,-0.2045,-0.2063,-0.207,-0.2055,-0.2072,-0.2052,-0.2042,-0.2039,-0.1886,-0.187,-0.197,-0.2008,-0.2009,-0.2009,-0.201,-0.201,0,-0.1424,-0.1514,-0.1554,-0.1586,-0.1691,-0.173,-0.1788,-0.1869,-0.1906,-0.198,-0.2008,-0.2038,-0.2051,-0.2043,-0.2033,-0.205,-0.2002,-0.2016,-0.1874,-0.1866,-0.1969,-0.1968,-0.1983,-0.1983,-0.1983,-0.1983,-0.1983,0,-0.138,-0.1418,-0.1533,-0.1557,-0.161,-0.17,-0.1755,-0.1818,-0.1895,-0.1922,-0.1997,-0.2006,-0.2046,-0.2033,-0.2024,-0.1926,-0.1988,-0.1856,-0.1835,-0.2001,-0.2003,-0.1968,-0.1967,-0.1981,-0.1981,-0.1982,-0.1982,0,-0.1293,-0.1369,-0.1424,-0.1542,-0.1578,-0.1618,-0.1729,-0.1767,-0.1852,-0.1887,-0.191,-0.1974,-0.195,-0.1962,-0.1938,-0.1884,-0.1828,-0.1777,-0.1943,-0.1936,-0.1706,-0.1709,-0.1608,-0.1603,-0.1598,-0.1595,-0.1592,0,-0.1249,-0.1269,-0.1393,-0.143,-0.1488,-0.1565,-0.1616,-0.1727,-0.1764,-0.1848,-0.1848,-0.186,-0.1883,-0.173,-0.1773,-0.1713,-0.1697,-0.1662,-0.1687,-0.1673,-0.1664,-0.1674,-0.1683,-0.1585,-0.1584,-0.1582,-0.1581,0,-0.1163,-0.1218,-0.1267,-0.134,-0.1406,-0.1459,-0.154,-0.1547,-0.1661,-0.1758,-0.1721,-0.1695,-0.1654,-0.1629,-0.158,-0.1552,-0.1687,-0.1617,-0.1626,-0.1649,-0.1644,-0.1641,-0.1655,-0.1566,-0.1568,-0.157,-0.1571,0,-0.1099,-0.1113,-0.1182,-0.1231,-0.1307,-0.1322,-0.1382,-0.1419,-0.1456,-0.1566,-0.1548,-0.1569,-0.1628,-0.1543,-0.1511,-0.1456,-0.1442,-0.1409,-0.1429,-0.1446,-0.1416,-0.1387,-0.1189,0,0,0,0,0,-0.1029,-0.103,-0.107,-0.1115,-0.1184,-0.1216,-0.1318,-0.1385,-0.1497,-0.1426,-0.1479,-0.1439,-0.1377,-0.1399,-0.1304,-0.1438,-0.1448,-0.1325,-0.1422,-0.1482,-0.15,-0.148,0,0,0,0,0,0,-0.0985,-0.1014,-0.1025,-0.0998,-0.1005,-0.1056,-0.1109,-0.1191,-0.1164,-0.1283,-0.1251,-0.1346,-0.1302,-0.1388,-0.1267,-0.1273,-0.1304,-0.1356,-0.1352,-0.1472,-0.1488,-0.1502,-0.1488,0,0,0,0,0]},{"header":{"parameterUnit":"m.s-1","parameterCategory":2,"la1":30.2991,"la2":30.254,"lo1":-89.0895,"lo2":-89.0444,"dy":0.0017,"dx":0.0017,"nx":28,"ny":28,"refTime":"2023-10-06T03:00:00:Z","depth":"4","parameterNumber":3,"parameterNumberName":"V-component_of_CURRENTS"},"data":[0,0,0,0,0,0,0,0,0,0,0,0,0,0,0,0,0,0,0,0,0,0,0,0,0,0,0,0,0,0,0,0,0,0,0,0,0,0,0,0,0,0,0,0,0,0,0,0,0,0,0,0,0,0,0,0,0,0,-0.0183,-0.0182,0,-0.0132,-0.0131,-0.013,-0.0083,-0.0082,-0.0082,-0.0081,-0.0004,-0.0002,-0.0001,0,0,0,0,0,0,0,0,0,0,0,0,0,-0.0198,-0.0198,-0.0183,-0.0182,-0.0182,-0.0132,-0.0131,-0.013,-0.0083,-0.0082,-0.0082,-0.0081,-0.0004,-0.0002,-0.0001,0,0,0,0,0,0,0,0,0,0,0,0,0,-0.0173,-0.0199,-0.0183,-0.0153,-0.015,-0.0132,-0.0131,-0.013,-0.0083,-0.0082,-0.0082,-0.0081,-0.0005,-0.0003,-0.0,-0.0001,0,0,0.0007,0.0008,0,0,0,0,0,0,0,0,-0.0175,-0.0173,-0.0158,-0.0155,-0.0151,-0.0114,-0.0108,-0.0086,-0.0083,-0.0108,-0.0081,-0.0081,-0.0039,-0.0034,-0.0025,0.0003,0.0006,0.0007,0.0009,0.001,0.001,0,0,0,0,0,0,0,-0.0177,-0.0174,-0.0162,-0.0157,-0.0153,-0.0127,-0.0123,-0.0103,-0.0077,-0.0105,-0.0102,-0.0098,-0.0037,-0.0028,-0.0023,0.0007,0.0007,0.0009,0.0011,0.0012,0.0063,0.0063,0,0,0,0,0,0,-0.0188,-0.0176,-0.0164,-0.016,-0.0162,-0.0128,-0.0123,-0.0126,-0.0078,-0.007,-0.0099,-0.0096,-0.0032,-0.0026,-0.002,0.0003,0.001,0.0012,0.0013,0.0063,0.0063,0.0062,0,0,0,0,0,0,-0.0188,-0.0187,-0.0166,-0.0167,-0.0163,-0.0129,-0.0132,-0.0125,-0.0116,-0.0073,-0.0065,-0.0096,-0.0031,-0.0023,-0.0001,0.0006,0.0013,0.0015,0.0063,0.0063,0.0063,0.0036,0,0,0,0,0,0,-0.0189,-0.0188,-0.0197,-0.0168,-0.0163,-0.0159,-0.0132,-0.0125,-0.0115,-0.0111,-0.0068,-0.006,-0.003,-0.0005,0.0002,0.0009,0.0017,0.0063,0.0063,0.0063,0.0037,0.0035,0.0033,0,0,0,0,0,-0.019,-0.0206,-0.0198,-0.0196,-0.0175,-0.016,-0.0155,-0.0127,-0.0116,-0.0115,-0.0084,-0.0061,-0.0001,-0.0003,0.0004,0.0013,0.0063,0.0063,0.0063,0.0038,0.0036,0.0033,0,0,0,0,0,0,-0.0217,-0.0202,-0.0192,-0.0203,-0.0185,-0.0152,-0.0153,-0.0134,-0.011,-0.0108,-0.0065,-0.0055,-0.0034,-0.0011,-0.0014,0.0026,0.0035,0.0037,0.0014,0.0012,0.001,0.0007,0.0019,0,0,0,0,0,-0.0229,-0.0238,-0.0213,-0.0223,-0.0217,-0.0187,-0.0179,-0.0161,-0.0135,-0.0124,-0.0092,-0.0059,-0.003,-0.001,0.0012,0.0034,0.0066,0.0045,0.0043,0.0041,0.0043,0.0101,0.0105,0.0062,0.0062,0.0062,0,0,-0.0242,-0.0236,-0.024,-0.0229,-0.0214,-0.0209,-0.018,-0.0174,-0.0163,-0.012,-0.01,-0.0071,-0.0029,-0.0004,0.0009,0.002,0.0068,0.0041,0.004,0.0042,0.0101,0.0105,0.0109,0.0062,0.0062,0.0062,0,0,-0.0272,-0.0268,-0.0283,-0.0272,-0.0256,-0.0234,-0.0235,-0.0206,-0.0186,-0.0167,-0.013,-0.0093,-0.0059,-0.0014,0.0011,0.0012,0.0048,0.0012,0.0012,0.0068,0.0072,0.0076,0.0112,0.012,0.0021,0.0021,0.0021,0,-0.0289,-0.0302,-0.0284,-0.0292,-0.0284,-0.0249,-0.0253,-0.023,-0.0195,-0.0175,-0.0167,-0.0094,-0.0058,-0.0005,-0.0001,0.001,0.0036,0.0018,0.0066,0.0071,0.0076,0.0112,0.0121,0.002,0.002,0.002,0.002,0,-0.0324,-0.0333,-0.0341,-0.0337,-0.0325,-0.0327,-0.029,-0.0275,-0.0249,-0.0215,-0.017,-0.0116,-0.0066,-0.0048,-0.0023,0.003,0.0035,0.005,0.0073,0.0079,0.0116,0.0126,0.0018,0.0019,0.0019,0.0019,0,0,-0.0362,-0.0367,-0.0369,-0.0374,-0.0349,-0.0345,-0.0326,-0.0291,-0.0274,-0.0228,-0.0194,-0.0129,-0.0093,-0.0063,-0.0019,0.0037,0.0094,0.0055,0.0058,0.0091,0.0202,0.0178,0.0186,0.0117,0.0119,0.012,0.0211,0,-0.0393,-0.0422,-0.0408,-0.0423,-0.0429,-0.0391,-0.0374,-0.0336,-0.0295,-0.0255,-0.0178,-0.0137,-0.01,-0.0076,-0.0012,0.0065,0.0119,0.0067,0.0191,0.0194,0.0173,0.0197,0.0125,0.0219,0.0221,0.0223,0.0224,0,-0.0425,-0.044,-0.0466,-0.0462,-0.0461,-0.0462,-0.0427,-0.0407,-0.0334,-0.03,-0.0233,-0.0178,-0.0085,-0.0063,0.0086,0.0047,0.012,0.0181,0.0187,0.0181,0.0188,0.0215,0.0242,0.0241,0.0239,0.0238,0.0237,0,-0.0457,-0.0476,-0.05,-0.0501,-0.0491,-0.0493,-0.048,-0.0423,-0.0401,-0.0328,-0.0301,-0.019,-0.0135,-0.0023,0.0103,0.0097,0.0258,0.0269,0.0316,0.0315,0.0321,0.0316,0.0373,0.0373,0.0372,0.0372,0.0372,0,-0.0487,-0.0507,-0.0525,-0.054,-0.0564,-0.0536,-0.0539,-0.0509,-0.0453,-0.0419,-0.033,-0.0274,-0.0122,-0.0012,0.0099,0.0235,0.0261,0.0321,0.0343,0.0305,0.0297,0.0328,0.0321,0.0375,0.0375,0.0374,0.0373,0,-0.0513,-0.0526,-0.0561,-0.0575,-0.0584,-0.06,-0.0594,-0.0585,-0.0531,-0.0483,-0.0462,-0.0329,-0.0186,-0.004,0.0146,0.0223,0.0358,0.0397,0.0334,0.0351,0.0377,0.0368,0.0463,0.0463,0.0463,0.0463,0.0463,0,-0.0526,-0.055,-0.0598,-0.0628,-0.0642,-0.0663,-0.0671,-0.0631,-0.061,-0.0507,-0.0479,-0.0344,-0.0243,0.0003,0.0148,0.0347,0.0372,0.0431,0.0417,0.0377,0.0389,0.038,0.0372,0.0463,0.0463,0.0463,0.0463,0,-0.055,-0.0575,-0.0606,-0.0671,-0.0704,-0.0729,-0.0732,-0.072,-0.0652,-0.061,-0.0473,-0.0335,-0.0179,0.0006,0.015,0.0297,0.0389,0.0431,0.0432,0.042,0.0378,0.0388,0.038,0.0463,0.0463,0.0463,0.0463,0,-0.0566,-0.0599,-0.065,-0.0699,-0.0748,-0.0768,-0.077,-0.0721,-0.0685,-0.056,-0.0516,-0.0333,-0.0222,-0.002,0.0123,0.0251,0.0285,0.0322,0.033,0.0331,0.0259,0.0185,0.0236,0,0,0,0,0,-0.0573,-0.0613,-0.067,-0.0722,-0.077,-0.0792,-0.0793,-0.0776,-0.0711,-0.0619,-0.056,-0.0405,-0.0173,-0.0065,0.006,0.0102,0.0284,0.025,0.0324,0.0463,0.0463,0.0398,0,0,0,0,0,0,-0.0581,-0.0639,-0.0669,-0.0725,-0.076,-0.08,-0.0801,-0.0762,-0.0694,-0.0614,-0.0487,-0.039,-0.0169,-0.0246,0.0059,0.0099,0.0159,0.0367,0.0369,0.0463,0.0463,0.0463,0.0397,0,0,0,0,0]}]]